Regional Weather Roundup
Issued by NWS Columbia, SC

Home | Current Version | Previous Version | Text Only | Print | Product List | Glossary On
Versions: 1 2 3 4 5 6 7 8 9 10 11 12 13 14 15 16 17 18 19 20 21 22 23 24 25 26 27 28 29 30 31 32 33 34 35 36 37 38 39 40 41 42 43 44 45 46 47 48 49 50
000
ASUS42 KCAE 240010
RWRCAE
REGIONAL WEATHER ROUNDUP
NATIONAL WEATHER SERVICE COLUMBIA SC
800 PM EDT WED MAY 23 2018

NOTE: "FAIR" INDICATES FEW OR NO CLOUDS BELOW 12,000 FEET WITH NO
SIGNIFICANT WEATHER AND/OR OBSTRUCTIONS TO VISIBILITY.

NOT ALL STATIONS ARE QUALITY CONTROLLED BY THE NATIONAL
WEATHER SERVICE. USE DATA WITH CAUTION...ESPECIALLY
DEWPOINT OBSERVATIONS.

SCZ001>056-GAZ040-063>065-077-240100-
...UPSTATE SOUTH CAROLINA...

CITY           SKY/WX    TMP DP  RH WIND       PRES   REMARKS
ANDERSON       FAIR      78  70  76 S7        30.05R
6HR MIN TEMP:  78; 6HR MAX TEMP:  84;

LIBERTY        FAIR      77  71  81 SW3       30.05R
6HR MIN TEMP:  77; 6HR MAX TEMP:  85;

SPARTANBURG    FAIR      79  66  65 SW3       30.04R
CLEMSON        FAIR      76  69  79 CALM      30.06R
6HR MIN TEMP:  76; 6HR MAX TEMP:  82;

GREENVILLE     MOCLDY    81  69  67 S9        30.06R
6HR MIN TEMP:  81; 6HR MAX TEMP:  86;

GREENWOOD      FAIR      75  70  84 SW5       30.07R
6HR MIN TEMP:  75; 6HR MAX TEMP:  84; 6HR PCP: TRACE;

GREER          FAIR      80  68  66 SW8       30.06R
6HR MIN TEMP:  80; 6HR MAX TEMP:  87;

ROCK HILL      FAIR      80  70  71 SW3       30.04R
6HR MIN TEMP:  80; 6HR MAX TEMP:  86;

CHESTER        FAIR      77  68  73 CALM      30.05R
LAURENS        FAIR      79  70  73 SW7       30.05R


...CENTRAL SOUTH CAROLINA...

CITY           SKY/WX    TMP DP  RH WIND       PRES   REMARKS
COLUMBIA APT   MOCLDY    80  72  76 SW5       30.03R
6HR MIN TEMP:  77; 6HR MAX TEMP:  87; 6HR PCP: TRACE;

COLUMBIA OWENS FAIR      80  71  74 S3        30.04S
6HR MIN TEMP:  80; 6HR MAX TEMP:  86; 6HR PCP:  0.05;

MCENTIRE ANGB  CLOUDY    78  72  80 S3        30.05R
6HR MIN TEMP:  76; 6HR MAX TEMP:  83;

ORANGEBURG     FAIR      77  71  82 S6        30.05S
6HR MIN TEMP:  75; 6HR MAX TEMP:  80; 6HR PCP: TRACE;

SUMTER SHAW    CLEAR     78  70  74 S6        30.03R
6HR MIN TEMP:  73; 6HR MAX TEMP:  84; 6HR PCP: TRACE;

NEWBERRY       FAIR      79  70  73 SW7       30.08R
AIKEN          FAIR      75  72  88 S5        30.09R
BARNWELL       FAIR      79  72  78 S5        30.05S
MANNING        FAIR      72  68  88 CALM      30.06R
CAMDEN         FAIR      75  70  83 MISG      30.05R
LANCASTER      FAIR      79  73  83 SE6       30.05R
WINNSBORO      FAIR      79  70  73 S8        30.04R


...EASTERN AND COASTAL SOUTH CAROLINA...

CITY           SKY/WX    TMP DP  RH WIND       PRES   REMARKS
MYRTLE BEACH   FAIR      75  68  78 S8        30.07R
6HR MIN TEMP:  75; 6HR MAX TEMP:  80; 6HR PCP:  0.04;

N MYRTLE BCH   FAIR      76  68  76 SW16      30.05R
6HR MIN TEMP:  76; 6HR MAX TEMP:  82; 6HR PCP: TRACE;

CONWAY         FAIR      73  73 100 CALM      30.06R
MARION         FAIR      77  68  73 S7        30.04F
HARTSVILLE     MOCLDY    72  70  94 CALM      30.04R
FLORENCE       FAIR      79  70  74 SW5       30.04R
6HR MIN TEMP:  79; 6HR MAX TEMP:  87; 6HR PCP: TRACE;

DARLINGTON       N/A     76  71  85 S5        30.04S
6HR MIN TEMP:  76; 6HR MAX TEMP:  86; 6HR PCP: TRACE;

CHARLESTON APT MOCLDY    77  66  68 S8        30.06R
6HR MIN TEMP:  77; 6HR MAX TEMP:  88; 6HR PCP: TRACE;

MOUNT PLEASANT FAIR      75  70  83 S7        30.07R
WALTERBORO     FAIR      75  72  88 S3        30.06F
BEAUFORT       FAIR      78  70  76 S5        30.06
6HR MIN TEMP:  78; 6HR MAX TEMP:  87; 6HR PCP: TRACE;



...EASTERN GEORGIA...

CITY           SKY/WX    TMP DP  RH WIND       PRES   REMARKS
AUGUSTA BUSH F FAIR      74  71  91 CALM      30.05R
6HR MIN TEMP:  74; 6HR MAX TEMP:  81; 6HR PCP:  0.16;

AUGUSTA DANIEL CLOUDY    77  71  82 S5        30.07R
6HR MIN TEMP:  74; 6HR MAX TEMP:  85; 6HR PCP:  0.64;

THOMSON        FAIR      73  71  92 SW6       30.11R
6HR MIN TEMP:  71; 6HR MAX TEMP:  79; 6HR PCP:  0.03;

CLAXTON        TSTM      75  74  96 CALM      30.06R
6HR MIN TEMP:  75; 6HR MAX TEMP:  87;

SYLVANIA       FAIR      74  73  93 CALM      30.07R
6HR MIN TEMP:  74; 6HR MAX TEMP:  85;

STATESBORO     FAIR      73  71  93 CALM      30.06R
6HR MIN TEMP:  73; 6HR MAX TEMP:  85;

SAVANNAH       MOCLDY    79  68  69 S3        30.06S
6HR MIN TEMP:  79; 6HR MAX TEMP:  89;



...SOUTHERN NORTH CAROLINA...

CITY           SKY/WX    TMP DP  RH WIND       PRES   REMARKS
CHARLOTTE      MOCLDY    80  70  71 S10       30.04R
6HR MIN TEMP:  80; 6HR MAX TEMP:  88; 6HR PCP: TRACE;

MONROE         LGT RAIN  76  72  87 W10       30.04R
6HR MIN TEMP:  76; 6HR MAX TEMP:  87; 6HR PCP: TRACE;

WADESBORO      MOCLDY    76  73  89 CALM      30.03S
6HR MIN TEMP:  75; 6HR MAX TEMP:  89; 6HR PCP:  0.04;

ROCKINGHAM     FAIR      73  71  94 CALM      30.03S
6HR MIN TEMP:  71; 6HR MAX TEMP:  87; 6HR PCP:  0.56;

RUTHERFORDTON  FAIR      80  69  70 CALM      30.05S
ASHEVILLE      FAIR      77  65  66 SE3       30.11R
6HR MIN TEMP:  77; 6HR MAX TEMP:  85;


$$



USA.gov is the U.S. government's official web portal to all federal, state and local government web resources and services.